Content
SEND FEEDBACK

Daily
Averages
Monthly
Summary
United States of America

HAZELWOOD, MISSOURI


Home > North America > United States > Missouri
Elevation: 570 feet     Latitude: 38 45N     Longitude: 090 22W

WEATHER
 
SELECT A DAY
Number of Records: 196,268;   Date Range: 1/1/95 - 7/20/14
 
SHARE

PRINT THIS DATA

[ ← Previous Day ]
WEATHER ALMANAC - JANUARY 17, 2013
[ Next Day → ]
[ °C ]   °F
Weather ElementAverageHighLow
Temperature32.1 °F42.1 °F (1:54 pm)21.9 °F (11:54 pm)
Dewpoint21.5 °F28.9 °F (9:54 am)16 °F (2:54 pm)
Humidity67.4 %85 % (2:54 am)35 % (2:54 pm)
Barometer30.38 in30.52 in (9:54 pm)30.18 in (1:54 am)
Wind Speed5.5 mph13.8 mph (2:54 pm)
Weather ElementAverage
Visibility10 mi
Wind DirectionSSE (170.4 °)

Weather ElementTotal
Precipitation---
Heating Degree Days33 (Base 65)
Averaged from 25 records on January 17, 2013
WEATHER CONDITIONS BREAKOUT
WIND DIRECTION BREAKOUT
WEATHER BY HOUR - JANUARY 17, 2013
[ °C ]   °F
Local TimeTemperatureDewpointHumidityBarometerVisibilityWind DirectionWind SpeedGust SpeedPrecipitationEventsConditions
1:54 AM32.0 °F24.1 °F73 %30.18 in10.0 miCalmOvercast
2:54 AM28.0 °F24.1 °F85 %30.20 in10.0 miWest (260°)3.5 mphClear
3:54 AM27.0 °F21.9 °F81 %30.22 in10.0 miCalmPartly Cloudy
4:54 AM28.9 °F21.9 °F75 %30.23 in10.0 miWest (270°)5.8 mphClear
5:54 AM25.0 °F21.0 °F85 %30.26 in10.0 miWSW (250°)3.5 mphClear
6:54 AM28.0 °F21.9 °F78 %30.29 in10.0 miCalmClear
7:54 AM30.9 °F25.0 °F79 %30.32 in10.0 miNorth (360°)4.6 mphClear
8:41 AM33.8 °F28.4 °F81 %30.34 in10.0 miNorth (360°)4.6 mphMostly Cloudy
8:54 AM34.0 °F28.0 °F79 %30.38 in10.0 miNorth (10°)8.1 mphOvercast
9:54 AM36.0 °F28.9 °F76 %30.40 in10.0 miNE (40°)6.9 mphMostly Cloudy
10:54 AM37.0 °F26.1 °F65 %30.40 in10.0 miNNW (340°)12.7 mphMostly Cloudy
11:22 AM37.4 °F24.8 °F60 %30.37 in10.0 miNNW (330°)11.5 mphPartly Cloudy
11:54 AM39.0 °F23.0 °F53 %30.39 in10.0 miNorth (10°)10.4 mphPartly Cloudy
12:54 PM41.0 °F21.9 °F47 %30.37 in10.0 miNorth (350°)11.5 mphClear
1:54 PM42.1 °F19.9 °F41 %30.37 in10.0 miNNW (330°)10.4 mphClear
2:54 PM42.1 °F16.0 °F35 %30.39 in10.0 miNNW (330°)13.8 mphClear
3:54 PM41.0 °F16.0 °F36 %30.41 in10.0 miNorth (350°)11.5 mphClear
4:54 PM37.0 °F16.0 °F42 %30.44 in10.0 miNNW (330°)10.4 mphClear
5:54 PM35.1 °F18.0 °F50 %30.47 in10.0 miNNW (340°)8.1 mphClear
6:54 PM28.9 °F18.0 °F64 %30.49 in10.0 miCalmClear
7:54 PM26.1 °F19.0 °F75 %30.50 in10.0 miCalmClear
8:54 PM24.1 °F19.0 °F81 %30.51 in10.0 miCalmClear
9:54 PM24.1 °F18.0 °F77 %30.52 in10.0 miCalmClear
10:54 PM23.0 °F18.0 °F81 %30.52 in10.0 miCalmClear
11:54 PM21.9 °F18.0 °F85 %30.52 in10.0 miCalmClear
Hourly data recorded from KSUS, located miles away from Hazelwood, Missouri







STORIES FROM OUR PARTNERS